Tracking 19575 objects as of 19-Feb-2019
HD Live streaming from Space Station
objects crossing your sky now

METEOR 2-5 DEB

Track METEOR 2-5 DEB now!
10-day predictions


NORAD ID: 36911
Int'l Code: 1979-095BC
Perigee: 829.6 km
Apogee: 844.4 km
Inclination: 81.2 °
Period: 101.5 minutes
Semi major axis: 7207 km
RCS: 0.0173 m2 (small)
Launch date: October 31, 1979
Source: Commonwealth of Independent States (former USSR) (CIS)
Launch site: PLESETSK MISSILE AND SPACE COMPLEX (PKMTR)

Note: This is SATELLITE DEBRIS
aabbcc
Your satellite tracking list
Your tracking list is empty




NASA's NSSDC Master Catalog

Two Line Element Set (TLE):
1 36911U 79095BC  19050.32886239  .00000787  00000-0  37338-3 0  9995
2 36911  81.2044 274.6062 0010243 146.1542 214.0289 14.18677104512015
Source of the keplerian elements: AFSPC